FW4170 Weather Reports


time (UTC)temp
C
wind
direction
speed
KPH
gust
KPH
rain 1hr
cm
rain 24hr
cm
rain mn
cm
humidity
%
barometer
mb
20260507231527 10 0 0.0 0.0 0.00 0.79 0.00 99 1016.0
20260507231006 10 180 0.0 3.2 0.00 0.79 0.00 99 1016.0
20260507230506 10 180 1.6 3.2 0.00 0.79 0.00 99 1016.0
20260507230006 10 180 0.0 3.2 0.00 0.79 0.00 99 1015.9
20260507225506 10 0 0.0 0.0 0.00 0.79 0.00 99 1016.0
20260507225006 10 0 0.0 0.0 0.00 0.79 0.00 99 1016.0
20260507224527 10 180 0.0 1.6 0.00 0.79 0.00 99 1016.0
20260507224006 10 180 0.0 1.6 0.00 0.79 0.00 99 1016.0
20260507223506 10 180 0.0 1.6 0.00 0.79 0.00 99 1016.0
20260507223006 10 180 0.0 3.2 0.00 0.79 0.00 99 1016.0
20260507222506 10 180 0.0 3.2 0.00 0.79 0.00 99 1016.0
20260507222027 10 180 0.0 3.2 0.00 0.79 0.00 99 1015.9
20260507221506 10 0 0.0 0.0 0.00 0.79 0.00 99 1016.0
20260507221006 10 180 0.0 3.2 0.00 0.79 0.00 99 1015.9
20260507220506 10 180 0.0 3.2 0.00 0.79 0.00 99 1016.0
20260507220007 10 180 0.0 3.2 0.00 0.79 0.00 99 1016.0
20260507215506 10 180 0.0 3.2 0.00 0.79 0.79 99 1016.0
20260507215006 10 180 0.0 1.6 0.00 0.81 0.79 99 1016.0
20260507214506 10 180 0.0 1.6 0.00 0.84 0.79 99 1016.0
20260507214006 10 186 0.0 3.2 0.00 0.84 0.79 99 1015.9
20260507213505 10 183 1.6 3.2 0.00 0.84 0.79 99 1016.0
20260507213006 11 180 0.0 3.2 0.00 0.84 0.79 99 1015.9
20260507212506 11 180 0.0 1.6 0.00 0.84 0.79 99 1015.9
20260507212006 11 180 0.0 3.2 0.00 0.84 0.79 99 1015.9
20260507211506 11 174 0.0 3.2 0.00 0.84 0.79 99 1016.0
20260507211006 11 173 0.0 3.2 0.00 0.84 0.79 99 1016.0
20260507210506 11 135 0.0 3.2 0.00 0.84 0.79 99 1015.8
20260507210006 11 146 0.0 3.2 0.00 0.84 0.79 99 1015.7
20260507205506 11 155 0.0 3.2 0.00 0.84 0.79 99 1015.8
20260507205006 11 180 0.0 3.2 0.00 0.84 0.79 99 1015.7
20260507204527 11 0 0.0 0.0 0.00 0.84 0.79 99 1015.7
20260507204006 11 180 0.0 1.6 0.00 0.84 0.79 98 1015.7
20260507203505 11 180 0.0 1.6 0.00 0.84 0.79 98 1015.9
20260507203006 11 180 0.0 1.6 0.00 0.84 0.79 98 1015.7
20260507202506 11 196 1.6 4.8 0.00 0.84 0.79 98 1015.9
20260507202006 11 207 1.6 4.8 0.00 0.84 0.79 98 1015.7
20260507201505 11 198 1.6 4.8 0.00 0.84 0.79 98 1015.7
20260507201006 11 176 1.6 4.8 0.00 0.84 0.79 98 1015.6
20260507200506 11 0 0.0 0.0 0.00 0.84 0.79 98 1015.7
20260507200006 11 0 0.0 0.0 0.00 0.84 0.79 97 1015.5
20260507195505 11 45 0.0 1.6 0.00 0.84 0.79 97 1015.6
20260507195026 11 45 0.0 3.2 0.00 0.84 0.79 97 1015.5
20260507194526 11 45 1.6 3.2 0.00 0.84 0.79 97 1015.6
20260507194005 11 45 1.6 3.2 0.00 0.84 0.79 97 1015.5
20260507193505 11 55 1.6 3.2 0.00 0.84 0.79 96 1015.5
20260507193006 11 84 0.0 3.2 0.00 0.84 0.79 96 1015.4
20260507192505 11 90 0.0 3.2 0.00 0.84 0.79 96 1015.5
20260507192005 11 74 0.0 3.2 0.00 0.84 0.79 96 1015.5
20260507191505 11 50 0.0 3.2 0.03 0.84 0.79 95 1015.4
20260507191005 11 20 0.0 3.2 0.23 0.84 0.79 95 1015.5
20260507190505 11 47 0.0 3.2 0.28 0.84 0.79 95 1015.4
20260507190006 11 90 1.6 3.2 0.36 0.84 0.79 94 1015.3
20260507185526 11 82 1.6 3.2 0.38 0.84 0.79 94 1015.1
20260507185005 11 46 0.0 3.2 0.56 0.84 0.79 94 1015.2
20260507184505 11 41 0.0 3.2 0.79 0.84 0.79 93 1015.2
20260507184006 11 42 1.6 4.8 0.79 0.84 0.79 93 1015.1
20260507183505 11 45 1.6 4.8 0.79 0.84 0.79 92 1015.0
20260507183005 11 68 1.6 3.2 0.79 0.84 0.79 92 1014.8
20260507182505 11 44 1.6 3.2 0.79 0.84 0.79 91 1014.8
20260507182005 11 109 3.2 11.3 0.79 0.84 0.79 90 1014.8
20260507181505 11 177 6.4 12.9 0.76 0.81 0.76 88 1014.7
20260507181005 11 219 4.8 12.9 0.53 0.61 0.53 85 1014.9
20260507180527 11 302 4.8 12.9 0.51 0.56 0.51 81 1014.6
20260507180005 11 319 8.0 14.5 0.43 0.48 0.43 79 1014.4
20260507175505 12 283 12.9 27.4 0.38 0.46 0.38 77 1014.4
20260507175005 13 250 14.5 27.4 0.20 0.28 0.20 74 1014.5
20260507174505 14 234 8.0 25.7 0.00 0.05 0.00 72 1014.4
20260507174005 14 208 3.2 6.4 0.00 0.05 0.00 72 1014.4
20260507173526 15 196 3.2 6.4 0.00 0.05 0.00 71 1014.3
20260507173005 15 209 3.2 6.4 0.00 0.05 0.00 71 1014.2
20260507172505 15 207 3.2 6.4 0.00 0.05 0.00 71 1014.1
20260507172005 15 207 1.6 6.4 0.00 0.05 0.00 71 1014.1
20260507171505 15 242 1.6 6.4 0.00 0.05 0.00 71 1014.2
20260507171005 15 242 1.6 4.8 0.00 0.05 0.00 71 1014.1
20260507170506 15 229 3.2 8.0 0.00 0.05 0.00 71 1014.0
20260507170005 15 246 4.8 8.0 0.00 0.05 0.00 71 1014.1
20260507165505 15 270 4.8 8.0 0.00 0.05 0.00 71 1014.1
20260507165005 15 277 4.8 6.4 0.00 0.05 0.00 71 1014.0
20260507164505 15 277 4.8 9.7 0.00 0.05 0.00 71 1014.0
20260507164005 15 279 6.4 9.7 0.00 0.05 0.00 71 1014.0
20260507163505 15 272 6.4 12.9 0.00 0.05 0.00 72 1014.0
20260507163005 15 269 6.4 12.9 0.00 0.05 0.00 72 1013.9
20260507162505 15 276 8.0 12.9 0.00 0.05 0.00 72 1013.9
20260507162005 15 286 9.7 17.7 0.00 0.05 0.00 72 1013.9
20260507161504 15 267 11.3 17.7 0.00 0.05 0.00 71 1013.8
20260507161025 15 237 12.9 20.9 0.00 0.05 0.00 71 1013.9
20260507160505 15 238 14.5 24.1 0.00 0.05 0.00 70 1013.9
20260507160005 15 249 12.9 24.1 0.00 0.05 0.00 70 1013.8
20260507155526 16 256 11.3 16.1 0.00 0.05 0.00 68 1013.8
20260507155026 16 273 9.7 14.5 0.00 0.05 0.00 67 1013.8
20260507154526 16 272 9.7 14.5 0.00 0.05 0.00 66 1013.8
20260507154026 16 254 9.7 17.7 0.00 0.05 0.00 65 1013.7
20260507153505 16 254 9.7 17.7 0.00 0.05 0.00 61 1013.7
20260507153005 16 248 9.7 16.1 0.00 0.05 0.00 60 1013.8
20260507152505 16 247 9.7 16.1 0.00 0.05 0.00 60 1013.6
20260507152025 17 249 9.7 17.7 0.00 0.05 0.00 60 1013.6
20260507151505 17 230 9.7 17.7 0.00 0.05 0.00 59 1013.5
20260507151004 17 216 8.0 16.1 0.00 0.05 0.00 59 1013.5
20260507150504 17 217 8.0 11.3 0.00 0.05 0.00 59 1013.5
20260507150005 17 210 8.0 11.3 0.00 0.05 0.00 60 1013.5
20260507145504 17 206 8.0 12.9 0.00 0.05 0.00 60 1013.4
20260507145005 17 202 9.7 17.7 0.00 0.05 0.00 60 1013.5
20260507144505 17 192 9.7 17.7 0.00 0.05 0.00 60 1013.5
20260507144004 17 179 4.8 14.5 0.00 0.05 0.00 62 1013.5
20260507143505 17 145 1.6 9.7 0.00 0.05 0.00 63 1013.5
20260507143005 17 107 1.6 6.4 0.00 0.05 0.00 63 1013.4
20260507142504 17 108 1.6 3.2 0.00 0.05 0.00 63 1013.4
20260507142004 17 90 1.6 4.8 0.00 0.05 0.00 63 1013.5
20260507141504 17 71 3.2 9.7 0.00 0.05 0.00 63 1013.5
20260507141007 17 55 3.2 9.7 0.00 0.05 0.00 62 1013.4
20260507140504 17 128 3.2 9.7 0.00 0.05 0.00 62 1013.5
20260507140005 17 177 1.6 3.2 0.00 0.05 0.00 61 1013.4
20260507135504 17 337 1.6 6.4 0.00 0.05 0.00 61 1013.4
20260507135026 17 4 3.2 9.7 0.00 0.05 0.00 61 1013.4
20260507134525 17 19 4.8 9.7 0.00 0.05 0.00 60 1013.4
20260507134005 17 346 3.2 8.0 0.00 0.05 0.00 58 1013.2
20260507133504 17 360 3.2 8.0 0.00 0.05 0.00 57 1013.2
20260507133005 17 31 3.2 11.3 0.00 0.05 0.00 57 1013.2
20260507132504 17 20 4.8 11.3 0.00 0.05 0.00 57 1013.3
20260507132004 17 304 3.2 6.4 0.00 0.05 0.00 58 1013.3
20260507131504 17 282 4.8 9.7 0.00 0.05 0.00 58 1013.5
20260507131004 17 275 6.4 12.9 0.00 0.05 0.00 58 1013.4
20260507130504 17 265 6.4 12.9 0.00 0.05 0.00 57 1013.4
20260507130004 17 212 1.6 8.0 0.00 0.05 0.00 56 1013.6
20260507125504 18 113 1.6 4.8 0.00 0.05 0.00 57 1013.6
20260507125004 18 135 1.6 4.8 0.00 0.05 0.00 57 1013.6
20260507124504 17 156 4.8 9.7 0.00 0.05 0.00 57 1013.7
20260507124004 17 154 6.4 9.7 0.00 0.05 0.00 57 1013.6
20260507123504 17 157 4.8 9.7 0.00 0.05 0.00 59 1013.6
20260507123004 17 186 4.8 8.0 0.00 0.05 0.00 60 1013.7
20260507122504 17 229 3.2 9.7 0.00 0.05 0.00 60 1013.7
20260507122004 17 249 1.6 9.7 0.00 0.05 0.00 60 1013.8
20260507121504 17 280 1.6 3.2 0.00 0.05 0.00 61 1013.8
20260507121004 17 220 3.2 6.4 0.00 0.05 0.00 61 1013.8
20260507120504 17 226 4.8 8.0 0.00 0.05 0.00 61 1013.8
20260507120005 17 260 6.4 9.7 0.00 0.05 0.00 61 1013.9
20260507115504 17 278 4.8 9.7 0.00 0.05 0.00 61 1013.9
20260507115004 17 296 3.2 8.0 0.00 0.05 0.00 62 1013.9
20260507114504 16 289 1.6 6.4 0.00 0.05 0.00 62 1013.8
20260507114025 16 267 3.2 9.7 0.00 0.05 0.00 63 1014.0
20260507113504 16 271 4.8 9.7 0.00 0.05 0.00 64 1014.0
20260507113004 16 221 6.4 14.5 0.00 0.05 0.00 69 1014.1
20260507112504 16 197 8.0 14.5 0.00 0.05 0.00 70 1014.1
20260507112005 16 209 6.4 9.7 0.00 0.05 0.00 68 1014.2
20260507111506 16 226 6.4 9.7 0.00 0.05 0.00 67 1014.1
20260507111025 16 219 6.4 11.3 0.00 0.05 0.00 67 1014.1
20260507110504 16 222 6.4 11.3 0.00 0.05 0.00 67 1014.0
20260507110004 16 220 6.4 11.3 0.00 0.05 0.00 67 1014.0
20260507105525 16 219 6.4 12.9 0.00 0.05 0.00 66 1014.2
20260507105004 16 225 8.0 12.9 0.00 0.05 0.00 65 1014.1
20260507104504 16 228 6.4 12.9 0.00 0.05 0.00 66 1014.0
20260507104004 16 214 4.8 9.7 0.00 0.05 0.00 65 1013.9
20260507103503 16 221 6.4 12.9 0.00 0.05 0.00 65 1013.8
20260507103025 16 244 6.4 12.9 0.00 0.05 0.00 64 1013.8
20260507102504 16 240 6.4 11.3 0.00 0.05 0.00 64 1013.9
20260507102006 16 217 6.4 11.3 0.00 0.05 0.00 61 1013.8
20260507101504 16 209 4.8 9.7 0.00 0.05 0.00 62 1013.8
20260507101004 16 216 3.2 6.4 0.00 0.05 0.00 64 1013.8
20260507100504 16 218 3.2 6.4 0.00 0.05 0.00 65 1013.7
20260507100005 16 198 3.2 6.4 0.00 0.05 0.00 65 1013.8
20260507095504 16 201 4.8 9.7 0.00 0.05 0.00 66 1013.7
20260507095004 16 213 4.8 9.7 0.00 0.05 0.00 66 1013.6
20260507094504 16 233 4.8 9.7 0.00 0.05 0.00 66 1013.7
20260507094003 16 245 4.8 9.7 0.00 0.05 0.00 66 1013.7
20260507093504 16 222 4.8 11.3 0.00 0.05 0.00 65 1013.6
20260507093004 16 200 6.4 12.9 0.00 0.05 0.00 66 1013.6
20260507092504 16 205 9.7 17.7 0.00 0.05 0.00 66 1013.5
20260507092025 16 197 11.3 22.5 0.00 0.05 0.00 66 1013.4
20260507091504 16 182 11.3 22.5 0.00 0.05 0.00 66 1013.4
20260507091004 16 204 9.7 17.7 0.00 0.05 0.00 65 1013.4
20260507090503 16 212 9.7 17.7 0.00 0.05 0.00 64 1013.3
20260507090004 16 188 11.3 17.7 0.00 0.05 0.00 60 1013.2
20260507085503 16 184 9.7 17.7 0.00 0.05 0.00 60 1013.2
20260507085003 16 180 8.0 16.1 0.00 0.05 0.00 60 1013.2
20260507084504 17 177 9.7 16.1 0.00 0.05 0.00 60 1013.2
20260507084004 17 173 8.0 16.1 0.00 0.05 0.00 60 1013.2
20260507083525 17 161 4.8 9.7 0.00 0.05 0.00 60 1013.1
20260507083004 16 69 3.2 6.4 0.00 0.05 0.00 60 1013.0
20260507082524 16 94 3.2 6.4 0.00 0.05 0.00 59 1013.0
20260507082004 16 193 3.2 11.3 0.00 0.05 0.00 60 1012.9
20260507081504 17 196 3.2 11.3 0.00 0.05 0.00 60 1013.0
20260507081025 17 198 4.8 12.9 0.00 0.05 0.00 61 1013.0
20260507080504 16 178 6.4 12.9 0.00 0.05 0.00 61 1012.9
20260507080004 16 80 4.8 9.7 0.00 0.05 0.00 61 1012.9
20260507075503 16 34 3.2 8.0 0.00 0.05 0.00 62 1012.9
20260507075003 16 31 3.2 9.7 0.00 0.05 0.00 62 1012.8
20260507074504 16 59 4.8 11.3 0.00 0.05 0.00 62 1012.9
20260507074003 16 125 3.2 11.3 0.00 0.05 0.00 68 1013.0
20260507073503 16 139 1.6 4.8 0.00 0.05 0.00 69 1012.9
20260507073004 16 76 3.2 11.3 0.00 0.05 0.00 69 1013.0
20260507072503 15 41 4.8 11.3 0.00 0.05 0.00 69 1012.9
20260507072003 15 35 3.2 9.7 0.00 0.05 0.00 70 1013.0
20260507071504 15 44 4.8 9.7 0.00 0.05 0.00 70 1013.0
20260507071003 15 25 4.8 8.0 0.00 0.05 0.00 70 1012.8
20260507070504 15 18 3.2 8.0 0.00 0.05 0.00 70 1012.8
20260507070025 15 35 3.2 8.0 0.00 0.05 0.00 70 1012.8
20260507065507 15 52 3.2 8.0 0.00 0.05 0.00 71 1012.8
20260507065008 15 31 1.6 6.4 0.00 0.05 0.00 72 1012.8
20260507064507 15 12 1.6 6.4 0.00 0.05 0.00 73 1012.8
20260507064007 15 7 3.2 6.4 0.00 0.05 0.00 73 1012.8
20260507063507 14 19 3.2 6.4 0.00 0.05 0.00 74 1012.8
20260507063029 14 36 3.2 6.4 0.00 0.05 0.00 74 1012.8
20260507062507 13 30 3.2 6.4 0.00 0.05 0.00 75 1012.9
20260507062007 13 10 3.2 6.4 0.00 0.05 0.00 76 1012.9
20260507061507 13 291 1.6 4.8 0.00 0.05 0.00 79 1012.8
20260507061007 13 224 1.6 3.2 0.00 0.05 0.00 79 1012.9
20260507060507 13 172 1.6 3.2 0.00 0.05 0.00 80 1012.8
20260507060008 13 128 1.6 4.8 0.00 0.05 0.00 80 1012.8
20260507055507 13 125 3.2 4.8 0.00 0.05 0.00 81 1012.7
20260507055007 13 101 3.2 6.4 0.00 0.05 0.00 81 1012.6
20260507054507 13 120 3.2 6.4 0.00 0.05 0.00 81 1012.6
20260507054028 12 140 3.2 6.4 0.00 0.05 0.00 81 1012.5
20260507053507 12 125 3.2 6.4 0.00 0.05 0.00 82 1012.5
20260507053007 12 112 1.6 4.8 0.00 0.05 0.00 82 1012.5
20260507052507 12 65 3.2 6.4 0.00 0.05 0.00 82 1012.3
20260507052028 12 50 3.2 6.4 0.00 0.05 0.00 82 1012.4
20260507051507 12 35 0.0 6.4 0.00 0.05 0.00 83 1012.2
20260507051007 12 236 0.0 3.2 0.00 0.05 0.00 83 1012.3
20260507050507 12 241 0.0 3.2 0.00 0.05 0.00 84 1012.2
20260507050007 12 207 1.6 3.2 0.00 0.05 0.00 84 1012.4
20260507045507 12 167 0.0 3.2 0.00 0.05 0.00 84 1012.3
20260507045007 11 184 1.6 3.2 0.00 0.05 0.00 84 1012.3
20260507044507 11 188 1.6 3.2 0.00 0.05 0.00 84 1012.4
20260507044007 11 199 0.0 3.2 0.00 0.05 0.00 84 1012.4
20260507043507 11 209 1.6 3.2 0.00 0.05 0.00 84 1012.3
20260507043007 11 214 1.6 3.2 0.00 0.05 0.00 84 1012.3
20260507042507 11 192 0.0 3.2 0.00 0.05 0.00 84 1012.3
20260507042007 11 163 1.6 3.2 0.00 0.05 0.00 84 1012.2
20260507041507 11 53 3.2 6.4 0.00 0.05 0.00 84 1012.2
20260507041007 11 39 3.2 6.4 0.00 0.05 0.00 84 1012.1
20260507040507 11 33 1.6 6.4 0.00 0.05 0.00 84 1012.1
20260507040028 11 19 0.0 3.2 0.00 0.05 0.00 88 1012.1
20260507035507 11 176 1.6 3.2 0.00 0.05 0.00 88 1012.0
20260507035007 11 174 1.6 3.2 0.00 0.05 0.00 87 1012.1
20260507034507 11 180 1.6 3.2 0.00 0.05 0.00 87 1012.0
20260507034007 11 168 1.6 3.2 0.00 0.05 0.00 83 1012.1
20260507033507 11 94 0.0 3.2 0.00 0.05 0.00 83 1011.8
20260507033007 11 45 0.0 3.2 0.00 0.05 0.00 83 1011.9
20260507032507 11 45 0.0 1.6 0.00 0.05 0.00 83 1011.7
20260507032028 11 45 0.0 1.6 0.00 0.05 0.00 82 1011.8
20260507031507 11 39 0.0 6.4 0.00 0.05 0.00 82 1012.0
20260507031007 11 27 3.2 11.3 0.00 0.05 0.00 82 1011.9
20260507030528 11 25 4.8 11.3 0.00 0.05 0.00 82 1011.8
20260507030007 12 47 1.6 6.4 0.00 0.05 0.00 83 1012.0
20260507025529 12 74 1.6 6.4 0.00 0.05 0.00 83 1011.9
20260507025028 12 113 0.0 3.2 0.00 0.05 0.00 83 1012.0
20260507024507 12 337 0.0 3.2 0.00 0.05 0.00 83 1012.1
20260507024007 12 295 1.6 3.2 0.00 0.05 0.00 83 1012.0
20260507023507 12 255 0.0 3.2 0.00 0.05 0.00 82 1012.0
20260507023028 12 355 0.0 3.2 0.00 0.05 0.00 82 1011.9
20260507022507 12 18 1.6 6.4 0.00 0.05 0.00 82 1012.0
20260507022028 12 26 3.2 6.4 0.00 0.05 0.00 82 1012.0
20260507021506 12 35 3.2 6.4 0.00 0.05 0.00 83 1012.2
20260507021006 12 40 3.2 6.4 0.00 0.05 0.00 83 1012.1
20260507020507 12 41 3.2 6.4 0.00 0.05 0.00 83 1012.2
20260507020007 12 75 1.6 6.4 0.00 0.05 0.00 83 1012.2
20260507015506 13 197 1.6 3.2 0.00 0.05 0.00 83 1012.2
20260507015006 13 299 1.6 3.2 0.00 0.05 0.00 83 1012.3
20260507014507 13 329 1.6 6.4 0.00 0.05 0.00 83 1012.2
20260507014006 13 323 1.6 6.4 0.00 0.05 0.00 83 1012.4
20260507013506 13 294 1.6 4.8 0.00 0.05 0.00 83 1012.4
20260507013006 13 340 1.6 3.2 0.00 0.05 0.00 83 1012.4
20260507012506 13 90 1.6 4.8 0.00 0.05 0.00 83 1012.5
20260507012006 13 113 1.6 4.8 0.00 0.05 0.00 83 1012.4
20260507011506 13 132 1.6 6.4 0.00 0.05 0.00 83 1012.5
20260507010506 13 320 3.2 8.0 0.00 0.05 0.00 83 1012.4
20260507010007 13 326 3.2 8.0 0.00 0.05 0.00 83 1012.3
20260507005506 13 343 1.6 3.2 0.00 0.05 0.00 83 1012.3
20260507005006 13 129 0.0 3.2 0.00 0.05 0.00 83 1012.3
20260507004506 13 170 1.6 4.8 0.00 0.05 0.00 83 1012.3
20260507004007 13 162 1.6 4.8 0.00 0.05 0.00 83 1012.1
20260507003506 13 132 1.6 4.8 0.00 0.05 0.00 83 1012.1
20260507003027 13 109 1.6 3.2 0.00 0.05 0.00 83 1012.0
20260507002527 13 72 1.6 3.2 0.00 0.05 0.00 83 1011.6
20260507002027 13 45 0.0 3.2 0.00 0.05 0.00 83 1011.5
20260507001506 13 58 1.6 6.4 0.00 0.05 0.00 82 1011.5
20260507001028 13 36 1.6 6.4 0.00 0.05 0.00 82 1011.6
20260507000506 13 6 1.6 6.4 0.00 0.05 0.00 82 1011.6
20260507000006 13 360 0.0 3.2 0.00 0.05 0.00 82 1011.6
20260506235506 13 35 3.2 6.4 0.00 0.05 0.00 81 1011.6
20260506235006 13 36 4.8 6.4 0.00 0.05 0.00 81 1011.6
20260506234506 13 20 3.2 6.4 0.00 0.05 0.00 81 1011.7
20260506234006 13 5 3.2 6.4 0.00 0.05 0.00 81 1011.9
20260506233527 13 20 3.2 9.7 0.00 0.05 0.00 81 1011.8
20260506233006 13 30 4.8 9.7 0.00 0.05 0.00 81 1011.8
20260506232506 13 40 4.8 8.0 0.00 0.05 0.00 80 1011.9
20260506232006 13 42 6.4 9.7 0.00 0.05 0.00 80 1011.9